TimePST,TemperatureF,Dew PointF,Humidity,Sea Level PressureIn,VisibilityMPH,Wind Direction,Wind SpeedMPH,Gust SpeedMPH,PrecipitationIn,Events,Conditions,WindDirDegrees,DateUTC
12:15 AM,21.2,14.0,74,30.11,10.0,West,3.5,-,N/A,,Clear,260,2013-02-17 08:15:00
12:35 AM,21.2,12.2,68,30.10,10.0,Calm,Calm,-,N/A,,Clear,0,2013-02-17 08:35:00
12:55 AM,23.0,14.0,68,30.09,10.0,Calm,Calm,-,N/A,,Clear,0,2013-02-17 08:55:00
1:15 AM,21.2,12.2,68,30.09,10.0,Calm,Calm,-,N/A,,Clear,0,2013-02-17 09:15:00
1:35 AM,21.2,12.2,68,30.08,10.0,Calm,Calm,-,N/A,,Clear,0,2013-02-17 09:35:00
1:55 AM,21.2,12.2,68,30.08,10.0,Calm,Calm,-,N/A,,Clear,0,2013-02-17 09:55:00
2:15 AM,21.2,12.2,68,30.07,10.0,Calm,Calm,-,N/A,,Clear,0,2013-02-17 10:15:00
2:35 AM,21.2,14.0,74,30.06,10.0,Calm,Calm,-,N/A,,Clear,0,2013-02-17 10:35:00
2:55 AM,21.2,14.0,74,30.05,10.0,Calm,Calm,-,N/A,,Clear,0,2013-02-17 10:55:00
3:15 AM,19.4,14.0,80,30.04,10.0,Calm,Calm,-,N/A,,Clear,0,2013-02-17 11:15:00
3:35 AM,21.2,14.0,74,30.03,10.0,Calm,Calm,-,N/A,,Clear,0,2013-02-17 11:35:00
3:55 AM,21.2,14.0,74,30.02,10.0,Calm,Calm,-,N/A,,Clear,0,2013-02-17 11:55:00
4:15 AM,21.2,14.0,74,30.02,10.0,Calm,Calm,-,N/A,,Clear,0,2013-02-17 12:15:00
4:35 AM,21.2,14.0,74,30.01,10.0,Calm,Calm,-,N/A,,Clear,0,2013-02-17 12:35:00
4:55 AM,21.2,14.0,74,30.01,10.0,Calm,Calm,-,N/A,,Clear,0,2013-02-17 12:55:00
5:15 AM,21.2,12.2,68,30.01,10.0,Calm,Calm,-,N/A,,Clear,0,2013-02-17 13:15:00
5:35 AM,26.6,14.0,59,30.01,10.0,West,8.1,-,N/A,,Clear,270,2013-02-17 13:35:00
5:55 AM,28.4,12.2,51,30.02,10.0,West,5.8,-,N/A,,Clear,260,2013-02-17 13:55:00
6:15 AM,26.6,12.2,55,30.02,10.0,West,3.5,-,N/A,,Clear,260,2013-02-17 14:15:00
6:35 AM,24.8,12.2,59,30.01,10.0,West,3.5,-,N/A,,Clear,260,2013-02-17 14:35:00
6:55 AM,26.6,12.2,55,30.01,10.0,West,4.6,-,N/A,,Clear,260,2013-02-17 14:55:00
7:15 AM,28.4,12.2,51,30.01,10.0,West,5.8,-,N/A,,Clear,270,2013-02-17 15:15:00
7:35 AM,32.0,12.2,44,30.01,10.0,West,4.6,-,N/A,,Clear,260,2013-02-17 15:35:00
7:55 AM,33.8,10.4,38,30.01,10.0,West,9.2,-,N/A,,Clear,260,2013-02-17 15:55:00
8:15 AM,37.4,10.4,33,30.01,10.0,WSW,6.9,-,N/A,,Clear,250,2013-02-17 16:15:00
8:35 AM,39.2,8.6,28,30.01,10.0,West,11.5,-,N/A,,Clear,260,2013-02-17 16:35:00
8:55 AM,41.0,8.6,26,30.01,10.0,West,10.4,-,N/A,,Clear,260,2013-02-17 16:55:00
9:15 AM,42.8,10.4,27,30.01,10.0,West,12.7,18.4,N/A,,Clear,260,2013-02-17 17:15:00
9:35 AM,42.8,8.6,25,30.01,10.0,WSW,9.2,17.3,N/A,,Clear,250,2013-02-17 17:35:00
9:55 AM,44.6,3.2,18,30.01,10.0,WSW,10.4,16.1,N/A,,Clear,250,2013-02-17 17:55:00
10:15 AM,44.6,6.8,21,30.01,10.0,WSW,11.5,-,N/A,,Clear,250,2013-02-17 18:15:00
10:55 AM,44.6,6.8,21,30.01,10.0,West,10.4,19.6,N/A,,Clear,260,2013-02-17 18:55:00
11:15 AM,44.6,8.6,23,30.01,10.0,WSW,10.4,-,N/A,,Clear,250,2013-02-17 19:15:00
11:35 AM,44.6,10.4,25,30.00,10.0,West,11.5,16.1,N/A,,Clear,260,2013-02-17 19:35:00
11:55 AM,46.4,12.2,25,30.00,10.0,West,13.8,17.3,N/A,,Clear,270,2013-02-17 19:55:00
12:15 PM,46.4,10.4,23,30.00,10.0,WSW,11.5,18.4,N/A,,Clear,250,2013-02-17 20:15:00
12:35 PM,46.4,8.6,22,29.99,10.0,West,13.8,18.4,N/A,,Clear,260,2013-02-17 20:35:00
12:55 PM,46.4,6.8,20,29.99,10.0,West,8.1,23.0,N/A,,Clear,260,2013-02-17 20:55:00
1:15 PM,46.4,8.6,22,29.98,10.0,WSW,8.1,18.4,N/A,,Clear,240,2013-02-17 21:15:00
1:35 PM,46.4,10.4,23,29.98,10.0,WSW,10.4,17.3,N/A,,Clear,240,2013-02-17 21:35:00
1:55 PM,46.4,10.4,23,29.98,10.0,West,11.5,18.4,N/A,,Clear,260,2013-02-17 21:55:00
2:15 PM,46.4,8.6,22,29.98,10.0,WSW,8.1,18.4,N/A,,Clear,250,2013-02-17 22:15:00
2:35 PM,46.4,8.6,22,29.98,10.0,West,16.1,21.9,N/A,,Clear,270,2013-02-17 22:35:00
2:55 PM,46.4,12.2,25,29.98,10.0,West,11.5,17.3,N/A,,Clear,270,2013-02-17 22:55:00
3:15 PM,46.4,12.2,25,29.98,10.0,WSW,9.2,16.1,N/A,,Clear,250,2013-02-17 23:15:00
3:35 PM,46.4,14.0,27,29.98,10.0,West,11.5,16.1,N/A,,Clear,260,2013-02-17 23:35:00
3:55 PM,46.4,12.2,25,29.98,10.0,WSW,6.9,-,N/A,,Clear,240,2013-02-17 23:55:00
4:15 PM,44.6,12.2,27,29.98,10.0,West,12.7,16.1,N/A,,Clear,260,2013-02-18 00:15:00
4:35 PM,44.6,12.2,27,29.99,10.0,WSW,4.6,-,N/A,,Clear,240,2013-02-18 00:35:00
4:55 PM,42.8,14.0,31,29.99,10.0,SW,4.6,-,N/A,,Clear,230,2013-02-18 00:55:00
5:15 PM,41.0,15.8,36,29.99,10.0,SW,4.6,-,N/A,,Clear,220,2013-02-18 01:15:00
5:35 PM,37.4,14.0,38,29.99,10.0,WSW,6.9,-,N/A,,Clear,240,2013-02-18 01:35:00
5:55 PM,37.4,15.8,41,30.00,10.0,West,8.1,-,N/A,,Clear,260,2013-02-18 01:55:00
6:15 PM,35.6,19.4,52,30.00,10.0,WSW,5.8,-,N/A,,Clear,250,2013-02-18 02:15:00
6:35 PM,33.8,19.4,56,30.00,10.0,WNW,6.9,-,N/A,,Clear,290,2013-02-18 02:35:00
6:55 PM,33.8,19.4,56,30.00,10.0,WSW,4.6,-,N/A,,Clear,240,2013-02-18 02:55:00
7:15 PM,32.0,19.4,60,30.01,10.0,Calm,Calm,-,N/A,,Clear,0,2013-02-18 03:15:00
7:35 PM,32.0,21.2,64,30.01,10.0,Calm,Calm,-,N/A,,Clear,0,2013-02-18 03:35:00
7:55 PM,30.2,21.2,69,30.01,7.0,Calm,Calm,-,N/A,,Clear,0,2013-02-18 03:55:00
8:15 PM,28.4,19.4,69,30.02,5.0,SW,3.5,-,N/A,,Haze,230,2013-02-18 04:15:00
8:35 PM,28.4,21.2,74,30.02,7.0,Calm,Calm,-,N/A,,Clear,0,2013-02-18 04:35:00
8:55 PM,26.6,19.4,74,30.04,10.0,Calm,Calm,-,N/A,,Clear,0,2013-02-18 04:55:00
9:15 PM,26.6,19.4,74,30.05,7.0,Calm,Calm,-,N/A,,Clear,0,2013-02-18 05:15:00
9:35 PM,26.6,19.4,74,30.05,7.0,Calm,Calm,-,N/A,,Clear,0,2013-02-18 05:35:00
9:55 PM,26.6,17.6,69,30.05,10.0,Calm,Calm,-,N/A,,Clear,0,2013-02-18 05:55:00
10:15 PM,24.8,17.6,74,30.06,7.0,Calm,Calm,-,N/A,,Clear,0,2013-02-18 06:15:00
10:35 PM,24.8,17.6,74,30.06,10.0,Calm,Calm,-,N/A,,Clear,0,2013-02-18 06:35:00
10:55 PM,23.0,14.0,68,30.06,10.0,Calm,Calm,-,N/A,,Clear,0,2013-02-18 06:55:00
11:15 PM,23.0,14.0,68,30.05,10.0,Calm,Calm,-,N/A,,Clear,0,2013-02-18 07:15:00
11:35 PM,23.0,14.0,68,30.05,10.0,Calm,Calm,-,N/A,,Clear,0,2013-02-18 07:35:00
11:55 PM,21.2,14.0,74,30.05,10.0,Calm,Calm,-,N/A,,Clear,0,2013-02-18 07:55:00